Waarnemingen

Advertentie
Mijn weer
Plymouth, Groot Brittannië (3827): temperatuur & dauwpunt: 11.12.2017 21:00:00 - 17.12.2017 21:00:00 (GMT)Plymouth, Groot Brittannië (3827): windsnelheid & windstoten: 11.12.2017 21:00:00 - 17.12.2017 21:00:00 (GMT)Plymouth, Groot Brittannië (3827): windrichting: 11.12.2017 21:00:00 - 17.12.2017 21:00:00 (GMT)Plymouth, Groot Brittannië (3827): luchtdruk: 11.12.2017 21:00:00 - 17.12.2017 21:00:00 (GMT)Plymouth, Groot Brittannië (3827): zicht: 11.12.2017 21:00:00 - 17.12.2017 21:00:00 (GMT)Plymouth, Groot Brittannië (3827): neerslag: 11.12.2017 21:00:00 - 17.12.2017 21:00:00 (GMT)
Datum & Tijd tt [°C] td [°C] ff [km/u] ff [kn] fx [km/u] fx [kn] dd ppp [hPa] vv [km] rr [mm]
17.12.2017 21:00:00 - - - - - - - - - -
17.12.2017 20:00:00 10,3 10,2 18 10 - - W 1024,4 14 0,0
17.12.2017 19:00:00 10,1 9,9 22 12 - - W 1023,9 6 0,0
17.12.2017 18:00:00 10,3 9,9 24 13 - - W 1023,5 8 0,0
17.12.2017 17:00:00 10,2 9,8 34 18 - - WZW 1023,3 9 0,0
17.12.2017 16:00:00 9,8 9,6 28 15 46 25 WZW 1023,6 8 0,2
17.12.2017 15:00:00 10,0 9,3 34 18 - - WZW 1024,1 3,1 0,0
17.12.2017 14:00:00 10,4 9,1 29 16 - - WZW 1024,4 10 0,0
17.12.2017 13:00:00 10,1 8,9 26 14 - - WZW 1025,3 13 0,0
17.12.2017 12:00:00 9,7 8,4 26 14 - - WZW 1026,1 15 0,0
17.12.2017 11:00:00 9,5 9,0 22 12 - - WZW 1025,7 13 0,0
17.12.2017 10:00:00 7,5 7,5 4 2 - - ZW 1025,6 9 0,0
17.12.2017 09:00:00 6,1 6,1 2 1 - - ZW 1025,9 4,1 0,0
17.12.2017 08:00:00 6,3 6,3 2 1 - - Z 1026,0 6 0,0
17.12.2017 07:00:00 6,0 6,0 5 3 - - OZO 1026,1 2,6 0,4
17.12.2017 06:00:00 5,7 5,6 4 2 - - N 1026,1 2,3 0,2
17.12.2017 05:00:00 5,9 5,8 0 0 - - N 1026,2 10 0,0
17.12.2017 04:00:00 5,5 5,4 4 2 - - WZW 1026,0 11 0,2
17.12.2017 03:00:00 5,3 5,2 2 1 - - NO 1026,2 1,9 0,0
17.12.2017 02:00:00 5,1 4,7 4 2 - - WZW 1026,2 10 0,0
17.12.2017 01:00:00 5,8 5,4 2 1 - - WZW 1025,9 12 0,0
17.12.2017 00:00:00 5,9 5,4 2 1 - - WNW 1026,0 13 0,0
16.12.2017 23:00:00 6,1 5,4 5 3 - - NW 1025,7 18 0,0
16.12.2017 22:00:00 6,2 5,5 4 2 - - ONO 1025,4 13 0,0
16.12.2017 21:00:00 6,5 5,8 9 5 - - WNW 1025,0 12 0,0
16.12.2017 20:00:00 6,1 5,4 8 4 - - W 1024,8 25 0,0
16.12.2017 19:00:00 6,6 5,8 9 5 - - NW 1024,6 29 0,8
16.12.2017 18:00:00 6,9 6,3 15 8 - - WNW 1024,0 10 0,6
16.12.2017 17:00:00 6,5 5,9 18 10 - - W 1023,7 8 0,8
16.12.2017 16:00:00 6,5 5,0 18 10 - - W 1023,2 18 0,6
16.12.2017 15:00:00 7,1 3,9 24 13 - - W 1022,9 13 0,0
16.12.2017 14:00:00 7,9 2,8 22 12 - - WNW 1022,9 24 0,0
16.12.2017 13:00:00 7,8 2,3 16 9 - - NW 1022,9 25 0,0
16.12.2017 12:00:00 7,5 2,7 18 10 - - NW 1022,6 29 0,0
16.12.2017 11:00:00 5,6 2,3 13 7 - - NNW 1022,7 24 0,0
16.12.2017 10:00:00 4,3 1,5 15 8 - - NNW 1022,3 30 0,0
16.12.2017 09:00:00 4,1 1,6 22 12 - - NNW 1021,7 16 0,0
16.12.2017 08:00:00 3,4 1,5 18 10 - - NNW 1020,8 14 0,0
16.12.2017 07:00:00 2,8 1,5 11 6 - - NW 1019,9 28 0,0
16.12.2017 06:00:00 2,8 1,7 8 4 - - NW 1019,3 15 0,0
16.12.2017 05:00:00 2,5 1,7 5 3 - - WNW 1018,9 18 0,0
16.12.2017 04:00:00 3,1 1,9 11 6 - - NW 1018,1 16 0,0
16.12.2017 03:00:00 3,4 1,8 9 5 - - NNW 1017,8 22 0,0
16.12.2017 02:00:00 4,2 2,3 18 10 - - NNW 1017,0 22 0,0
16.12.2017 01:00:00 4,8 1,5 28 15 46 25 NNW 1016,3 27 0,0
16.12.2017 00:00:00 4,1 1,4 13 7 - - NNW 1015,8 17 0,0
15.12.2017 23:00:00 3,9 0,9 15 8 - - NNW 1015,1 29 0,0
15.12.2017 22:00:00 4,5 1,4 16 9 - - NNW 1014,3 24 0,0
15.12.2017 21:00:00 4,9 2,0 21 11 - - NNW 1013,3 35 0,0
15.12.2017 20:00:00 5,3 1,9 18 10 - - N 1012,6 17 0,0
15.12.2017 19:00:00 4,9 2,1 11 6 - - N 1011,5 17 0,0
15.12.2017 18:00:00 5,9 2,5 22 12 - - NNW 1010,1 25 0,0
15.12.2017 17:00:00 6,4 2,4 26 14 - - N 1009,1 14 0,0
15.12.2017 16:00:00 7,3 2,7 29 16 46 25 NNW 1007,6 30 0,0
15.12.2017 15:00:00 7,5 2,7 22 12 48 26 N 1006,5 40 0,0
15.12.2017 14:00:00 8,0 3,9 21 11 - - NW 1005,6 21 0,0
15.12.2017 13:00:00 8,0 3,4 26 14 - - NNW 1004,7 27 0,0
15.12.2017 12:00:00 8,0 3,2 24 13 - - NW 1004,5 21 0,0
15.12.2017 11:00:00 7,0 2,4 24 13 - - NNW 1003,7 23 0,0
15.12.2017 10:00:00 6,1 1,8 29 16 46 25 NNW 1002,6 14 0,0
15.12.2017 09:00:00 5,7 2,1 29 16 50 27 NNW 1001,3 20 0,0
15.12.2017 08:00:00 6,0 3,5 28 15 54 29 NNW 999,6 23 0,2
15.12.2017 07:00:00 6,2 4,5 22 12 63 34 NW 998,6 7 0,2
15.12.2017 06:00:00 7,0 3,6 28 15 50 27 NW 997,3 13 0,2
15.12.2017 05:00:00 7,2 3,9 28 15 50 27 NW 996,9 11 0,0
15.12.2017 04:00:00 6,8 4,2 24 13 - - WNW 996,7 23 0,0
15.12.2017 03:00:00 7,0 4,7 26 14 - - WNW 996,5 16 0,0
15.12.2017 02:00:00 6,1 4,4 24 13 46 25 W 996,5 16 0,0
15.12.2017 01:00:00 6,3 4,1 21 11 - - WNW 996,3 14 0,0
15.12.2017 00:00:00 5,4 3,6 18 10 52 28 NW 996,3 18 0,2
14.12.2017 23:00:00 6,0 3,7 28 15 - - NW 995,8 14 0,2
14.12.2017 22:00:00 5,9 2,9 18 10 46 25 NW 995,2 22 0,0
14.12.2017 21:00:00 6,4 2,3 31 17 59 32 NW 994,1 25 0,0
14.12.2017 20:00:00 6,1 3,6 41 22 74 40 NW 992,9 3,8 0,2
14.12.2017 19:00:00 6,2 4,8 24 13 46 25 WNW 991,7 20 1,2
14.12.2017 18:00:00 5,9 4,7 34 18 50 27 W 990,8 19 0,4
14.12.2017 17:00:00 5,9 4,6 37 20 54 29 W 991,5 19 0,6
14.12.2017 16:00:00 5,0 3,7 24 13 70 38 W 992,1 12 0,8
14.12.2017 15:00:00 5,6 3,3 16 9 - - WNW 992,7 10 0,2
14.12.2017 14:00:00 4,8 2,5 22 12 65 35 W 993,4 13 0,2
14.12.2017 13:00:00 5,7 4,1 24 13 59 32 W 993,9 18 0,4
14.12.2017 12:00:00 6,3 3,7 37 20 57 31 WZW 994,6 10 0,0
14.12.2017 11:00:00 5,6 3,9 39 21 55 30 WZW 996,0 15 0,0
14.12.2017 10:00:00 4,7 2,7 34 18 63 34 W 996,5 35 0,0
14.12.2017 09:00:00 5,0 3,2 37 20 68 37 WZW 997,4 20 0,0
14.12.2017 08:00:00 5,4 3,5 34 18 65 35 WZW 997,1 16 0,0
14.12.2017 07:00:00 5,6 3,0 35 19 59 32 W 997,8 15 0,0
14.12.2017 06:00:00 5,4 3,4 35 19 52 28 W 998,2 18 0,0
14.12.2017 05:00:00 4,4 3,3 29 16 76 41 WZW 998,7 18 0,8
14.12.2017 04:00:00 6,4 3,2 37 20 52 28 W 999,3 13 0,0
14.12.2017 03:00:00 6,3 4,3 42 23 63 34 WZW 999,8 13 0,0
14.12.2017 02:00:00 5,7 3,5 39 21 55 30 WZW 1000,0 10 0,2
14.12.2017 01:00:00 5,7 1,9 39 21 63 34 W 1000,7 23 0,0
14.12.2017 00:00:00 6,1 1,5 37 20 52 28 W 1000,5 15 0,0
13.12.2017 23:00:00 6,2 1,4 29 16 50 27 W 1000,3 16 0,0
13.12.2017 22:00:00 5,9 1,4 35 19 63 34 WNW 999,5 15 0,0
13.12.2017 21:00:00 5,5 2,3 35 19 80 43 WNW 998,7 15 0,8
13.12.2017 20:00:00 5,7 4,6 34 18 93 50 W 997,7 8 0,4
13.12.2017 19:00:00 6,3 5,2 48 26 83 45 W 996,6 11 1,6
13.12.2017 18:00:00 7,6 5,3 37 20 57 31 W 996,7 6 0,0
13.12.2017 17:00:00 7,2 3,6 29 16 48 26 W 997,8 17 0,0
13.12.2017 16:00:00 7,8 4,3 28 15 52 28 W 997,9 11 0,0
13.12.2017 15:00:00 8,4 4,5 35 19 72 39 W 997,6 18 0,0
13.12.2017 14:00:00 9,1 8,2 34 18 54 29 W 997,5 11 0,4
13.12.2017 13:00:00 9,1 8,3 34 18 57 31 W 997,7 19 2,0
13.12.2017 12:00:00 10,0 9,4 41 22 57 31 WZW 998,8 13 0,2
13.12.2017 11:00:00 9,5 9,0 35 19 61 33 WZW 1000,2 12 0,0
13.12.2017 10:00:00 9,1 8,4 46 25 67 36 WZW 1001,4 5 0,2
13.12.2017 09:00:00 9,5 8,6 34 18 - - WZW 1002,2 7 0,2
13.12.2017 08:00:00 8,3 7,7 21 11 46 25 WZW 1003,3 16 0,2
13.12.2017 07:00:00 8,6 7,8 34 18 50 27 WZW 1004,0 7 0,0
13.12.2017 06:00:00 8,1 7,4 24 13 - - W 1004,6 8 0,4
13.12.2017 05:00:00 8,8 7,1 28 15 - - WZW 1004,7 8 0,0
13.12.2017 04:00:00 8,0 6,7 21 11 - - WZW 1005,1 10 0,0
13.12.2017 03:00:00 7,7 6,6 16 9 - - W 1005,4 7 0,0
13.12.2017 02:00:00 7,8 6,8 18 10 - - W 1005,3 9 0,0
13.12.2017 01:00:00 8,2 7,0 18 10 - - W 1005,2 10 0,0
13.12.2017 00:00:00 9,0 8,4 16 9 48 26 WNW 1004,9 11 0,6
12.12.2017 23:00:00 10,2 10,2 41 22 61 33 ZW 1004,5 8 0,4
12.12.2017 22:00:00 9,7 9,7 46 25 63 34 ZW 1004,8 2,1 1,0
12.12.2017 21:00:00 9,2 9,1 44 24 68 37 ZW 1006,6 3,3 1,2
12.12.2017 20:00:00 8,5 8,3 42 23 54 29 ZZW 1007,6 2,9 0,8
12.12.2017 19:00:00 8,0 7,6 42 23 55 30 ZW 1008,3 4,0 0,2
12.12.2017 18:00:00 8,0 6,0 35 19 57 31 ZW 1008,8 8 0,2
12.12.2017 17:00:00 7,3 5,5 24 13 46 25 W 1009,0 10 0,8
12.12.2017 16:00:00 8,4 3,8 24 13 - - WZW 1008,8 30 0,0
12.12.2017 15:00:00 6,7 5,0 5 3 - - WZW 1009,9 24 0,0
12.12.2017 14:00:00 5,3 4,3 0 0 - - N 1009,9 12 0,0
12.12.2017 13:00:00 4,8 4,1 2 1 - - O 1010,3 14 -
12.12.2017 12:00:00 3,5 2,9 4 2 - - O 1010,5 14 0,0
12.12.2017 11:00:00 2,6 2,3 5 3 - - ONO 1010,7 12 0,2
12.12.2017 10:00:00 1,5 1,2 5 3 - - ONO 1010,6 14 0,0
12.12.2017 09:00:00 1,0 0,8 9 5 - - OZO 1009,9 14 0,0
12.12.2017 08:00:00 0,1 -0,2 9 5 - - O 1009,7 13 0,0
12.12.2017 07:00:00 1,7 1,6 2 1 - - ONO 1008,7 21 0,0
12.12.2017 06:00:00 0,3 0,0 5 3 - - O 1008,0 15 0,0
12.12.2017 05:00:00 1,3 1,1 9 5 - - NO 1007,2 26 0,0
12.12.2017 04:00:00 0,5 0,2 5 3 - - WNW 1006,7 19 0,0
12.12.2017 03:00:00 0,4 -0,1 5 3 - - N 1006,4 21 0,0
12.12.2017 02:00:00 1,5 1,1 9 5 - - WNW 1005,1 26 0,0
12.12.2017 01:00:00 1,0 0,4 5 3 - - WNW 1003,7 22 0,0
12.12.2017 00:00:00 1,1 0,6 5 3 - - N 1002,9 35 0,0
11.12.2017 23:00:00 0,7 -0,3 2 1 - - WNW 1002,1 12 0,0
11.12.2017 22:00:00 0,9 -0,5 2 1 - - O 1001,3 16 0,0
11.12.2017 21:00:00 2,3 0,7 2 1 - - ZW 1000,0 16 0,0

tt = temperatuur
td = dauwpunt
ff = windsnelheid
fx = windstoten
dd = windrichting
ppp = luchtdruk
vv = zicht
rr = neerslag

Weerstations in de omgeving